[[{"header":{"parameterUnit":"m.s-1","parameterCategory":1,"la1":30.2991,"la2":30.254,"lo1":-89.0895,"lo2":-89.0444,"dy":0.0017,"dx":0.0017,"nx":28,"ny":28,"refTime":"2026-02-02T09:00:00:Z","depth":0,"parameterNumber":2,"parameterNumberName":"U-component_of_WINDS"},"data":[0,0,0,0,0,0,0,0,0,0,0,0,0,0,0,0,0,0,0,0,0,0,0,0,0,0,0,0,0,0,0,0,0,0,0,0,0,0,0,0,0,0,0,0,0,0,0,0,0,0,0,0,0,0,0,0,0,0,0.2657,0.2658,0,0.2708,0.2709,0.271,0.2742,0.2742,0.2742,0.2742,0.2798,0.2799,0.2801,0,0,0,0,0,0,0,0,0,0,0,0,0,0.2591,0.2592,0.2657,0.2658,0.2658,0.2708,0.2709,0.271,0.2742,0.2742,0.2742,0.2742,0.2798,0.2799,0.2801,0,0,0,0,0,0,0,0,0,0,0,0,0,0.2629,0.2592,0.2657,0.268,0.2683,0.2708,0.2709,0.271,0.2742,0.2742,0.2742,0.2742,0.2797,0.2799,0.2801,0.2809,0,0,0.2807,0.2808,0,0,0,0,0,0,0,0,0.2626,0.2631,0.2676,0.2679,0.2682,0.2719,0.2706,0.2743,0.2742,0.2719,0.2742,0.2742,0.2772,0.2776,0.2785,0.2811,0.2814,0.2807,0.2809,0.281,0.281,0,0,0,0,0,0,0,0.2624,0.2629,0.2677,0.2677,0.268,0.269,0.2695,0.2713,0.2744,0.2721,0.2724,0.2729,0.2773,0.2783,0.2787,0.2814,0.2807,0.2809,0.281,0.2811,0.2852,0.2852,0,0,0,0,0,0,0.2617,0.2627,0.2676,0.2679,0.2654,0.269,0.2697,0.2707,0.2744,0.2749,0.2729,0.2731,0.278,0.2784,0.2789,0.2802,0.281,0.2811,0.2813,0.2852,0.2852,0.2852,0,0,0,0,0,0,0.2615,0.2621,0.2674,0.2654,0.2661,0.2691,0.2702,0.2708,0.2717,0.2749,0.2755,0.2733,0.278,0.2786,0.2804,0.2804,0.2812,0.2814,0.2852,0.2852,0.2852,0.2826,0,0,0,0,0,0,0.2613,0.262,0.2622,0.2653,0.2662,0.2686,0.2702,0.2708,0.272,0.2723,0.2755,0.276,0.2781,0.2801,0.2806,0.2807,0.2816,0.2852,0.2852,0.2852,0.2827,0.2825,0.2823,0,0,0,0,0,0.2611,0.2613,0.2622,0.2628,0.2665,0.2686,0.2691,0.2714,0.272,0.2723,0.2744,0.2759,0.2803,0.2802,0.2808,0.281,0.2853,0.2852,0.2852,0.2828,0.2825,0.2823,0,0,0,0,0,0,0.2582,0.2617,0.2628,0.264,0.266,0.2691,0.2696,0.271,0.2729,0.2731,0.2759,0.2766,0.2782,0.2798,0.2796,0.282,0.283,0.2831,0.2809,0.2807,0.2805,0.2801,0.2817,0,0,0,0,0,0.2577,0.259,0.2621,0.2628,0.2638,0.2665,0.2675,0.2691,0.2713,0.2722,0.2744,0.2766,0.2785,0.2797,0.2816,0.2829,0.2838,0.2834,0.2832,0.283,0.2831,0.2841,0.284,0.2851,0.2851,0.2851,0,0,0.2566,0.2587,0.2594,0.2623,0.264,0.2655,0.2672,0.2686,0.2698,0.2724,0.2743,0.276,0.2787,0.2803,0.2811,0.2817,0.283,0.283,0.2828,0.283,0.2841,0.284,0.2839,0.2851,0.2851,0.2851,0,0,0.2555,0.2572,0.2581,0.2598,0.2623,0.2642,0.2644,0.2674,0.2686,0.2705,0.2726,0.2741,0.2772,0.2791,0.2805,0.2803,0.2818,0.2808,0.2798,0.2808,0.2808,0.2807,0.2808,0.2808,0.2809,0.2809,0.2809,0,0.254,0.2561,0.2584,0.2597,0.261,0.2635,0.2645,0.2661,0.2692,0.2701,0.2707,0.2748,0.2768,0.2789,0.2789,0.2799,0.2804,0.2805,0.2806,0.2805,0.2805,0.2806,0.2806,0.2807,0.2808,0.2808,0.2808,0,0.2541,0.2556,0.2561,0.2589,0.2603,0.2615,0.2641,0.2652,0.2667,0.2686,0.2706,0.273,0.2756,0.2762,0.2777,0.2787,0.279,0.28,0.281,0.2802,0.2804,0.2805,0.2806,0.2806,0.2806,0.2807,0,0,0.2513,0.2555,0.2556,0.257,0.2601,0.2614,0.2628,0.2652,0.2662,0.2683,0.2696,0.2723,0.2734,0.2749,0.2767,0.2775,0.2774,0.2785,0.2786,0.2783,0.2789,0.2781,0.2781,0.2785,0.2785,0.2785,0.2787,0,0.2507,0.2532,0.2554,0.2571,0.2586,0.261,0.2623,0.2644,0.2662,0.2679,0.27,0.2719,0.273,0.274,0.275,0.2772,0.2776,0.2772,0.28,0.28,0.2793,0.2782,0.2774,0.2774,0.2788,0.2788,0.2788,0,0.2504,0.2523,0.2542,0.2573,0.258,0.259,0.2615,0.263,0.2656,0.2669,0.2687,0.2705,0.2723,0.2732,0.2758,0.2755,0.2768,0.2781,0.2782,0.2786,0.2794,0.2787,0.2775,0.2775,0.2789,0.2789,0.2789,0,0.2483,0.2514,0.253,0.2541,0.2576,0.2584,0.2599,0.2625,0.2639,0.2661,0.267,0.2695,0.2708,0.2728,0.2753,0.2757,0.2778,0.2788,0.2791,0.279,0.2794,0.2794,0.2785,0.2801,0.2801,0.2801,0.2801,0,0.2475,0.2486,0.2521,0.253,0.2544,0.257,0.2583,0.2601,0.2624,0.2639,0.2662,0.2676,0.2708,0.2727,0.2747,0.2767,0.2773,0.2785,0.2791,0.2784,0.2782,0.2793,0.2794,0.2801,0.2801,0.2801,0.2801,0,0.2454,0.2477,0.2496,0.2529,0.2537,0.2546,0.2575,0.2586,0.2606,0.2625,0.2631,0.2662,0.2685,0.2713,0.2745,0.2759,0.2778,0.2785,0.2769,0.2772,0.2774,0.2773,0.2772,0.2774,0.2788,0.2787,0.2787,0,0.2448,0.2456,0.249,0.2501,0.2515,0.2533,0.2547,0.2573,0.2587,0.2618,0.2626,0.2651,0.2672,0.2709,0.2736,0.2761,0.277,0.2768,0.2774,0.2768,0.2772,0.2771,0.2773,0.2767,0.2766,0.2766,0.2766,0,0.2434,0.2446,0.2464,0.2487,0.2502,0.2522,0.2543,0.2551,0.2582,0.2597,0.2621,0.2637,0.267,0.2695,0.2725,0.2743,0.276,0.2764,0.2766,0.2759,0.2749,0.2756,0.2765,0.2764,0.2764,0.2764,0.2764,0.2764,0.2421,0.2431,0.2456,0.2476,0.2494,0.2513,0.2526,0.2547,0.2567,0.2595,0.261,0.2633,0.2661,0.2702,0.272,0.274,0.2746,0.2749,0.275,0.275,0.2749,0.2746,0.2746,0.2746,0.2746,0.2746,0.2746,0,0.241,0.2428,0.2446,0.2474,0.249,0.2503,0.2528,0.2541,0.2561,0.2584,0.2605,0.2633,0.2658,0.2687,0.2714,0.2725,0.2734,0.2732,0.2732,0.2736,0.2741,0.2737,0.2724,0.2724,0.2724,0.2724,0.2724,0.2724,0.2407,0.2424,0.2438,0.2465,0.2483,0.2505,0.2518,0.2537,0.2556,0.2586,0.2606,0.2624,0.2651,0.2681,0.2705,0.2713,0.2723,0.2718,0.2729,0.2733,0.2735,0.2737,0.2733,0.272,0.272,0.2722,0.2722,0.2722]},{"header":{"parameterUnit":"m.s-1","parameterCategory":1,"la1":30.2991,"la2":30.254,"lo1":-89.0895,"lo2":-89.0444,"dy":0.0017,"dx":0.0017,"nx":28,"ny":28,"refTime":"2026-02-02T09:00:00:Z","depth":0,"parameterNumber":3,"parameterNumberName":"V-component_of_WINDS"},"data":[0,0,0,0,0,0,0,0,0,0,0,0,0,0,0,0,0,0,0,0,0,0,0,0,0,0,0,0,0,0,0,0,0,0,0,0,0,0,0,0,0,0,0,0,0,0,0,0,0,0,0,0,0,0,0,0,0,0,3.7804,3.7804,0,3.7798,3.7798,3.7797,3.7827,3.7828,3.7829,3.783,3.782,3.7819,3.7818,0,0,0,0,0,0,0,0,0,0,0,0,0,3.7842,3.7841,3.7804,3.7804,3.7804,3.7798,3.7798,3.7797,3.7827,3.7828,3.7829,3.783,3.782,3.7819,3.7818,0,0,0,0,0,0,0,0,0,0,0,0,0,3.7829,3.7841,3.7804,3.7818,3.782,3.7798,3.7798,3.7797,3.7827,3.7828,3.783,3.7831,3.7821,3.7819,3.7818,3.7781,0,0,3.7813,3.7812,0,0,0,0,0,0,0,0,3.783,3.7828,3.7816,3.7817,3.7819,3.7815,3.7807,3.7792,3.7827,3.7824,3.783,3.7832,3.7817,3.7816,3.7812,3.7781,3.778,3.7813,3.7812,3.7811,3.781,0,0,0,0,0,0,0,3.7831,3.7828,3.7802,3.7816,3.7817,3.7825,3.7824,3.7804,3.7813,3.7824,3.7827,3.7826,3.7818,3.7813,3.7812,3.778,3.7813,3.7811,3.781,3.7809,3.7722,3.7721,0,0,0,0,0,0,3.783,3.7829,3.7802,3.7801,3.7828,3.7823,3.7823,3.7815,3.7813,3.7815,3.7824,3.7827,3.7815,3.7813,3.7811,3.7771,3.7811,3.7809,3.7808,3.7724,3.7722,3.7721,0,0,0,0,0,0,3.7831,3.7827,3.7802,3.7816,3.7813,3.7821,3.7812,3.7814,3.7809,3.7814,3.7815,3.7818,3.7816,3.7814,3.7789,3.7771,3.7809,3.7807,3.7725,3.7723,3.7721,3.7688,0,0,0,0,0,0,3.7832,3.7827,3.7814,3.7815,3.7812,3.778,3.781,3.7813,3.7807,3.781,3.7808,3.7809,3.7817,3.7792,3.7788,3.7769,3.7806,3.7727,3.7724,3.7722,3.7691,3.7685,3.768,0,0,0,0,0,3.7833,3.7803,3.7813,3.7809,3.7795,3.7779,3.7777,3.7788,3.7805,3.7791,3.7795,3.7809,3.7774,3.7789,3.7785,3.7766,3.7728,3.7725,3.7722,3.7693,3.7686,3.7681,0,0,0,0,0,0,3.7797,3.7803,3.7814,3.7784,3.7781,3.7784,3.7767,3.778,3.7771,3.7775,3.7788,3.7787,3.7761,3.7761,3.7778,3.7732,3.7754,3.775,3.7733,3.7727,3.7722,3.7723,3.7804,0,0,0,0,0,3.7786,3.7773,3.7779,3.7751,3.775,3.7759,3.7752,3.7761,3.7758,3.7757,3.7758,3.7754,3.7743,3.7734,3.7724,3.7691,3.7692,3.7676,3.7671,3.7666,3.7663,3.7649,3.7642,3.7711,3.7711,3.7711,0,0,3.7762,3.7764,3.7754,3.7744,3.7743,3.773,3.7757,3.7741,3.7731,3.7754,3.7732,3.7733,3.773,3.7702,3.769,3.7701,3.7645,3.7663,3.7659,3.7658,3.7645,3.7639,3.7633,3.7709,3.7709,3.7709,0,0,3.7712,3.7711,3.769,3.7689,3.7688,3.7695,3.769,3.7692,3.7694,3.7673,3.7691,3.7679,3.7658,3.7656,3.7652,3.7605,3.7619,3.7601,3.7574,3.756,3.7554,3.755,3.7535,3.7529,3.7597,3.7597,3.7597,0,3.7682,3.7663,3.7677,3.7661,3.7657,3.7679,3.7658,3.7656,3.7651,3.7648,3.766,3.7637,3.7636,3.761,3.7599,3.7594,3.759,3.7601,3.7554,3.7549,3.7545,3.7532,3.7526,3.7595,3.7596,3.7596,3.7596,0,3.7628,3.7615,3.7597,3.7595,3.7589,3.757,3.7582,3.7574,3.7584,3.759,3.7569,3.7569,3.756,3.7555,3.7563,3.753,3.7538,3.7552,3.7574,3.7537,3.7524,3.7519,3.7592,3.7593,3.7594,3.7594,0,0,3.7553,3.7561,3.7555,3.7555,3.7557,3.7547,3.753,3.7523,3.7517,3.7513,3.7501,3.7484,3.7498,3.7494,3.7503,3.749,3.7457,3.7507,3.7507,3.7499,3.7423,3.7414,3.7407,3.7466,3.7465,3.7464,3.7424,0,3.7506,3.7479,3.7493,3.7464,3.7454,3.7476,3.7461,3.7461,3.7467,3.7458,3.7464,3.7453,3.7471,3.7469,3.7458,3.7463,3.7442,3.7466,3.7455,3.7454,3.7456,3.74,3.7389,3.7352,3.7419,3.7418,3.7418,0,3.7447,3.7444,3.7415,3.7422,3.7418,3.7405,3.7402,3.7393,3.7394,3.7399,3.7396,3.7409,3.7394,3.7416,3.7396,3.7412,3.7409,3.7411,3.741,3.741,3.7434,3.7401,3.734,3.7335,3.741,3.741,3.7411,0,3.7399,3.7387,3.7369,3.7368,3.7375,3.7366,3.7368,3.7371,3.7367,3.7363,3.7362,3.7356,3.7353,3.7348,3.736,3.7375,3.734,3.7362,3.7344,3.7344,3.7336,3.7337,3.7276,3.7331,3.7331,3.7331,3.7331,0,3.7346,3.7328,3.7348,3.7337,3.7318,3.7334,3.7314,3.7319,3.7322,3.7312,3.733,3.7321,3.7336,3.7328,3.7337,3.7321,3.7319,3.7323,3.7326,3.7322,3.7322,3.7321,3.7324,3.733,3.733,3.733,3.7331,0,3.7288,3.7301,3.7283,3.7293,3.7295,3.728,3.7288,3.7279,3.7286,3.7275,3.7273,3.7284,3.7277,3.7288,3.7281,3.7287,3.7266,3.7271,3.7266,3.7268,3.7251,3.7253,3.7188,3.7181,3.7239,3.7239,3.7238,0,3.7254,3.7241,3.725,3.7246,3.7248,3.7241,3.7238,3.7254,3.725,3.7252,3.7243,3.7237,3.7234,3.7221,3.7229,3.7224,3.7231,3.7209,3.723,3.7228,3.7233,3.7235,3.7234,3.7204,3.7204,3.7203,3.7203,0,3.7193,3.7201,3.7197,3.7195,3.7192,3.7191,3.7192,3.7187,3.7204,3.7199,3.7193,3.719,3.7185,3.718,3.7178,3.718,3.7195,3.7196,3.7192,3.7189,3.7187,3.719,3.7255,3.7197,3.7198,3.7198,3.7198,3.7199,3.7148,3.7139,3.7145,3.714,3.7143,3.7144,3.7136,3.7144,3.714,3.7138,3.7147,3.7139,3.7143,3.7142,3.7144,3.7138,3.7148,3.7141,3.714,3.7139,3.7137,3.7187,3.7137,3.7138,3.7138,3.7138,3.7138,0,3.7089,3.7095,3.7091,3.7093,3.709,3.7105,3.7107,3.7103,3.7097,3.71,3.7097,3.7091,3.7087,3.7096,3.7093,3.7087,3.7094,3.7086,3.7087,3.7088,3.7127,3.7132,3.7081,3.7081,3.7081,3.7081,3.7081,3.7081,3.7059,3.7045,3.7054,3.7043,3.7048,3.7042,3.7042,3.7044,3.7047,3.704,3.7037,3.7044,3.7049,3.7048,3.7046,3.7048,3.7047,3.7038,3.7043,3.7079,3.7085,3.709,3.7095,3.7037,3.7037,3.7004,3.7004,3.7004]}]]